User: anonymous   Login
Location: NJAA Observatory
(40.6819°N, 74.8979°W)
Time: 09:24:44
(UTC-04:00)
Language:

Landsat 5 - Orbit

View from above orbital plane
View from above orbital plane
View from above satellite
View from above satellite

Ground track
Ground track

The orbit data is extracted from the following two-line orbital elements,

1 14780U 84021A   15145.82079704  .00001130  00000-0  11308-3 0  9999
2 14780 098.0300 233.7913 0094284 128.0977 232.8789 14.90299321663612
Epoch (UTC): 25 May 2015 19:41:56
Eccentricity: 0.0094284
inclination: 98.0300°
perigee height: 531 km
apogee height: 663 km
right ascension of ascending node: 233.7913°
argument of perigee: 128.0977°
revolutions per day: 14.90299321
mean anomaly at epoch: 232.8789°
orbit number at epoch: 66361

The dashed part of the orbit path shows where the satellite is in the earth's shadow,  

DLR